,,,PA_Meas_PMT16A,,PR_Meas_QMR101_102,,RH_Meas_QMH101,,SR_Meas_QMS101,,TA_Meas_QMH101,,GenWind,,GenWind,
date,time,status,PA,status,PR,status,RH,status,SR,status,TA,status,DirAvg,status,SpdAvg,
2008-05-31, 00:00:04,VALID,1004.36,VALID,0,VALID,87.0226,VALID,0.100563,VALID,26.0596,VALID,38,VALID,0.755078,
2008-05-31, 00:01:04,VALID,1004.37,VALID,0,VALID,87.2896,VALID,0.100563,VALID,26.0421,VALID,58,VALID,1.24883,
2008-05-31, 00:02:04,VALID,1004.37,VALID,0,VALID,87.4346,VALID,0.100563,VALID,26.0012,VALID,76,VALID,1.1793,
2008-05-31, 00:03:04,VALID,1004.37,VALID,0,VALID,87.4727,VALID,0,VALID,26.0012,VALID,75,VALID,0.920703,
2008-05-31, 00:04:04,VALID,1004.4,VALID,0,VALID,87.5033,VALID,0.100563,VALID,26.0012,VALID,26,VALID,0.410156,
2008-05-31, 00:05:04,VALID,1004.4,VALID,0,VALID,87.6482,VALID,0.100563,VALID,25.9622,VALID,43,VALID,1.14766,
2008-05-31, 00:06:04,VALID,1004.41,VALID,0,VALID,87.6863,VALID,0,VALID,25.9622,VALID,21,VALID,1.37461,
2008-05-31, 00:07:04,VALID,1004.45,VALID,0,VALID,87.6787,VALID,0,VALID,25.9836,VALID,90,VALID,0.534766,
2008-05-31, 00:08:04,VALID,1004.43,VALID,0,VALID,87.7321,VALID,0.100563,VALID,25.9232,VALID,93,VALID,1.19961,
2008-05-31, 00:09:04,VALID,1004.43,VALID,0,VALID,87.7855,VALID,0,VALID,25.9232,VALID,108,VALID,0.905078,
2008-05-31, 00:10:04,VALID,1004.46,VALID,0,VALID,87.7474,VALID,0,VALID,25.9232,VALID,70,VALID,0.676953,
2008-05-31, 00:11:04,VALID,1004.43,VALID,0,VALID,87.6711,VALID,0,VALID,25.9642,VALID,60,VALID,1.04258,
2008-05-31, 00:12:04,VALID,1004.42,VALID,0,VALID,87.5795,VALID,0,VALID,25.9817,VALID,63,VALID,1.44375,
2008-05-31, 00:13:04,VALID,1004.43,VALID,0,VALID,87.5261,VALID,0,VALID,25.9622,VALID,81,VALID,0.880859,
2008-05-31, 00:14:04,VALID,1004.37,VALID,0,VALID,87.4956,VALID,0.100563,VALID,25.9622,VALID,60,VALID,1.33477,
2008-05-31, 00:15:04,VALID,1004.38,VALID,0,VALID,87.4346,VALID,0,VALID,26.0031,VALID,76,VALID,0.920313,
2008-05-31, 00:16:04,VALID,1004.38,VALID,0,VALID,87.3965,VALID,0,VALID,25.9797,VALID,84,VALID,1.32813,
2008-05-31, 00:17:04,VALID,1004.33,VALID,0,VALID,87.3507,VALID,0,VALID,26.0031,VALID,35,VALID,0.964063,
2008-05-31, 00:18:04,VALID,1004.35,VALID,0,VALID,87.3888,VALID,0,VALID,25.9622,VALID,66,VALID,0.821484,
2008-05-31, 00:19:04,VALID,1004.35,VALID,0,VALID,87.343,VALID,0,VALID,25.9817,VALID,83,VALID,1.64375,
2008-05-31, 00:20:04,VALID,1004.35,VALID,0,VALID,87.2439,VALID,0,VALID,26.0031,VALID,58,VALID,0.792188,
2008-05-31, 00:21:04,VALID,1004.31,VALID,0,VALID,87.3049,VALID,0,VALID,25.9622,VALID,32,VALID,0.894141,
2008-05-31, 00:22:04,VALID,1004.29,VALID,0,VALID,87.3583,VALID,0,VALID,25.9642,VALID,13,VALID,0.610547,
2008-05-31, 00:23:04,VALID,1004.25,VALID,0,VALID,87.4422,VALID,0,VALID,25.9232,VALID,55,VALID,0.438672,
2008-05-31, 00:24:04,VALID,1004.29,VALID,0,VALID,87.549,VALID,0,VALID,25.9038,VALID,77,VALID,1.39375,
2008-05-31, 00:25:04,VALID,1004.23,VALID,0,VALID,87.5948,VALID,0,VALID,25.9057,VALID,81,VALID,0.940234,
2008-05-31, 00:26:04,VALID,1004.25,VALID,0,VALID,87.5033,VALID,0,VALID,25.8843,VALID,31,VALID,0.672656,
2008-05-31, 00:27:04,VALID,1004.26,VALID,0,VALID,87.549,VALID,0,VALID,25.9057,VALID,30,VALID,0.563672,
2008-05-31, 00:28:04,VALID,1004.29,VALID,0,VALID,87.6177,VALID,0,VALID,25.8863,VALID,104,VALID,1.71875,
2008-05-31, 00:29:04,VALID,1004.28,VALID,0,VALID,87.6711,VALID,0,VALID,25.8453,VALID,84,VALID,1.79297,
2008-05-31, 00:30:04,VALID,1004.26,VALID,0,VALID,87.7474,VALID,0,VALID,25.8473,VALID,35,VALID,0.875781,
2008-05-31, 00:31:04,VALID,1004.21,VALID,0,VALID,87.8466,VALID,0.100563,VALID,25.8278,VALID,111,VALID,0.892578,
2008-05-31, 00:32:04,VALID,1004.21,VALID,0,VALID,87.7703,VALID,0,VALID,25.8473,VALID,97,VALID,0.734375,
2008-05-31, 00:33:04,VALID,1004.17,VALID,0,VALID,87.755,VALID,0,VALID,25.8668,VALID,64,VALID,0.869141,
2008-05-31, 00:34:04,VALID,1004.17,VALID,0,VALID,87.7245,VALID,0,VALID,25.8473,VALID,35,VALID,0.466797,
2008-05-31, 00:35:04,VALID,1004.1,VALID,0,VALID,87.8389,VALID,0,VALID,25.7869,VALID,34,VALID,0.973828,
2008-05-31, 00:36:04,VALID,1004.12,VALID,0,VALID,87.961,VALID,0,VALID,25.7674,VALID,21,VALID,0.955859,
2008-05-31, 00:37:04,VALID,1004.11,VALID,0,VALID,88.0831,VALID,0,VALID,25.748,VALID,67,VALID,1.06953,
2008-05-31, 00:38:04,VALID,1004.06,VALID,0,VALID,87.9991,VALID,0,VALID,25.8064,VALID,89,VALID,1.01094,
2008-05-31, 00:39:04,VALID,1004.07,VALID,0,VALID,87.8771,VALID,0.100563,VALID,25.8064,VALID,73,VALID,0.287891,
2008-05-31, 00:40:04,VALID,1004.04,VALID,0,VALID,87.8618,VALID,0,VALID,25.8083,VALID,18,VALID,0.676172,
2008-05-31, 00:41:04,VALID,1004,VALID,0,VALID,87.9305,VALID,0,VALID,25.7889,VALID,26,VALID,0.501172,
2008-05-31, 00:42:04,VALID,1004.05,VALID,0,VALID,88.0068,VALID,0,VALID,25.8083,VALID,71,VALID,2.54297,
2008-05-31, 00:43:04,VALID,1004,VALID,0,VALID,87.7398,VALID,0,VALID,25.8453,VALID,83,VALID,0.944531,
2008-05-31, 00:44:04,VALID,1004,VALID,0,VALID,87.6329,VALID,0,VALID,25.8648,VALID,73,VALID,0.482812,
2008-05-31, 00:45:04,VALID,1003.99,VALID,0,VALID,87.5338,VALID,0,VALID,25.8863,VALID,73,VALID,1.36992,
2008-05-31, 00:46:04,VALID,1003.98,VALID,0,VALID,87.4422,VALID,0,VALID,25.9272,VALID,80,VALID,0.959375,
2008-05-31, 00:47:04,VALID,1003.94,VALID,0,VALID,87.3583,VALID,0.100563,VALID,25.9252,VALID,80,VALID,1.29883,
2008-05-31, 00:48:04,VALID,1003.94,VALID,0,VALID,87.1066,VALID,0,VALID,26.0031,VALID,91,VALID,1.39414,
2008-05-31, 00:49:04,VALID,1003.92,VALID,0,VALID,86.8014,VALID,0,VALID,26.0421,VALID,46,VALID,0.768359,
2008-05-31, 00:50:04,VALID,1003.89,VALID,0,VALID,86.8167,VALID,0,VALID,26.0031,VALID,85,VALID,0.655078,
2008-05-31, 00:51:04,VALID,1003.86,VALID,0,VALID,86.8472,VALID,0,VALID,26.0031,VALID,74,VALID,0.557813,
2008-05-31, 00:52:04,VALID,1003.83,VALID,0,VALID,86.8777,VALID,0,VALID,25.9622,VALID,105,VALID,1.35195,
2008-05-31, 00:53:04,VALID,1003.88,VALID,0,VALID,86.8624,VALID,0,VALID,26.0031,VALID,82,VALID,1.17461,
2008-05-31, 00:54:04,VALID,1003.83,VALID,0,VALID,86.8319,VALID,0,VALID,26.0226,VALID,60,VALID,1.4375,
2008-05-31, 00:55:04,VALID,1003.87,VALID,0,VALID,86.7861,VALID,0,VALID,26.0012,VALID,85,VALID,0.903906,
2008-05-31, 00:56:04,VALID,1003.88,VALID,0,VALID,86.7861,VALID,0,VALID,25.9817,VALID,57,VALID,0.941016,
2008-05-31, 00:57:04,VALID,1003.87,VALID,0,VALID,86.8624,VALID,0,VALID,25.9836,VALID,54,VALID,1.07383,
2008-05-31, 00:58:04,VALID,1003.87,VALID,0,VALID,86.8395,VALID,0,VALID,26.0206,VALID,84,VALID,1.59023,
2008-05-31, 00:59:04,VALID,1003.86,VALID,0,VALID,86.481,VALID,0,VALID,26.0596,VALID,17,VALID,0.710156,
2008-05-31, 01:00:04,VALID,1003.86,VALID,0,VALID,86.5268,VALID,0,VALID,26.0401,VALID,32,VALID,1.06992,
2008-05-31, 01:01:04,VALID,1003.84,VALID,0,VALID,86.6259,VALID,0,VALID,26.0616,VALID,17,VALID,0.903516,
2008-05-31, 01:02:04,VALID,1003.81,VALID,0,VALID,86.7099,VALID,0.100563,VALID,26.0226,VALID,36,VALID,1.44258,
2008-05-31, 01:03:04,VALID,1003.79,VALID,0,VALID,86.7251,VALID,0,VALID,26.0012,VALID,17,VALID,0.653516,
2008-05-31, 01:04:04,VALID,1003.75,VALID,0,VALID,86.7633,VALID,0,VALID,25.9622,VALID,5,VALID,0.348437,
2008-05-31, 01:05:04,VALID,1003.75,VALID,0,VALID,86.9082,VALID,0,VALID,25.9622,VALID,21,VALID,1.71289,
2008-05-31, 01:06:04,VALID,1003.74,VALID,0,VALID,86.8777,VALID,0.100563,VALID,25.9836,VALID,14,VALID,1.16758,
2008-05-31, 01:07:04,VALID,1003.73,VALID,0,VALID,86.8319,VALID,0,VALID,25.9622,VALID,34,VALID,1.12383,
2008-05-31, 01:08:04,VALID,1003.76,VALID,0,VALID,86.7404,VALID,0,VALID,25.9622,VALID,24,VALID,0.620313,
2008-05-31, 01:09:04,VALID,1003.74,VALID,0,VALID,86.809,VALID,0,VALID,25.9622,VALID,68,VALID,0.953906,
2008-05-31, 01:10:04,VALID,1003.71,VALID,0,VALID,86.8777,VALID,0,VALID,25.9622,VALID,79,VALID,1.84453,
2008-05-31, 01:11:04,VALID,1003.7,VALID,0,VALID,86.8014,VALID,0,VALID,26.0012,VALID,71,VALID,0.919531,
2008-05-31, 01:12:04,VALID,1003.72,VALID,0,VALID,86.7709,VALID,0.100563,VALID,25.9797,VALID,71,VALID,0.832422,
2008-05-31, 01:13:04,VALID,1003.74,VALID,0,VALID,86.8853,VALID,0.100563,VALID,25.9836,VALID,48,VALID,1.04219,
2008-05-31, 01:14:04,VALID,1003.77,VALID,0,VALID,86.9235,VALID,0,VALID,25.9622,VALID,43,VALID,0.989062,
2008-05-31, 01:15:04,VALID,1003.8,VALID,0,VALID,86.9616,VALID,0.100563,VALID,25.9817,VALID,100,VALID,0.978516,
2008-05-31, 01:16:04,VALID,1003.82,VALID,0,VALID,86.9616,VALID,0,VALID,26.0031,VALID,69,VALID,1.28984,
2008-05-31, 01:17:04,VALID,1003.82,VALID,0,VALID,86.9464,VALID,0.100563,VALID,25.9836,VALID,91,VALID,0.464063,
2008-05-31, 01:18:04,VALID,1003.85,VALID,0,VALID,86.9998,VALID,0,VALID,25.9447,VALID,58,VALID,0.511328,
2008-05-31, 01:19:04,VALID,1003.79,VALID,0,VALID,87.16,VALID,0,VALID,25.8843,VALID,105,VALID,0.758594,
2008-05-31, 01:20:04,VALID,1003.78,VALID,0,VALID,87.3354,VALID,0,VALID,25.8843,VALID,102,VALID,1.23633,
2008-05-31, 01:21:04,VALID,1003.77,VALID,0,VALID,87.3125,VALID,0.100563,VALID,25.9252,VALID,38,VALID,0.589453,
2008-05-31, 01:22:04,VALID,1003.74,VALID,0,VALID,87.3583,VALID,0,VALID,25.8843,VALID,26,VALID,1.12031,
2008-05-31, 01:23:04,VALID,1003.73,VALID,0,VALID,87.4651,VALID,0,VALID,25.8648,VALID,28,VALID,1.28984,
2008-05-31, 01:24:04,VALID,1003.66,VALID,0,VALID,87.5261,VALID,0,VALID,25.8648,VALID,18,VALID,1.07422,
2008-05-31, 01:25:04,VALID,1003.67,VALID,0,VALID,87.4193,VALID,0.100563,VALID,25.9057,VALID,47,VALID,0.650391,
2008-05-31, 01:26:04,VALID,1003.71,VALID,0,VALID,87.4041,VALID,0.100563,VALID,25.8453,VALID,346,VALID,0.782422,
2008-05-31, 01:27:04,VALID,1003.75,VALID,0,VALID,87.5872,VALID,0,VALID,25.8278,VALID,46,VALID,0.903516,
2008-05-31, 01:28:04,VALID,1003.73,VALID,0,VALID,87.7092,VALID,0.100563,VALID,25.748,VALID,46,VALID,0.314063,
2008-05-31, 01:29:04,VALID,1003.73,VALID,0,VALID,88.0831,VALID,0.100563,VALID,25.7109,VALID,48,VALID,0.828906,
2008-05-31, 01:30:04,VALID,1003.74,VALID,0,VALID,88.289,VALID,0.100563,VALID,25.6895,VALID,74,VALID,0.760156,
2008-05-31, 01:31:04,VALID,1003.73,VALID,0,VALID,88.289,VALID,0.100563,VALID,25.709,VALID,65,VALID,1.13203,
2008-05-31, 01:32:04,VALID,1003.72,VALID,0,VALID,88.2204,VALID,0,VALID,25.7285,VALID,88,VALID,1.01406,
2008-05-31, 01:33:04,VALID,1003.72,VALID,0,VALID,88.1517,VALID,0,VALID,25.7674,VALID,87,VALID,1.22031,
2008-05-31, 01:34:04,VALID,1003.69,VALID,0,VALID,87.9915,VALID,0.100563,VALID,25.7869,VALID,71,VALID,0.755469,
2008-05-31, 01:35:04,VALID,1003.74,VALID,0,VALID,87.9457,VALID,0,VALID,25.7869,VALID,74,VALID,1.20625,
2008-05-31, 01:36:04,VALID,1003.72,VALID,0,VALID,87.961,VALID,0,VALID,25.7869,VALID,97,VALID,0.9375,
2008-05-31, 01:37:04,VALID,1003.69,VALID,0,VALID,87.9762,VALID,0.100563,VALID,25.7674,VALID,73,VALID,0.264062,
2008-05-31, 01:38:04,VALID,1003.68,VALID,0,VALID,88.0754,VALID,0.100563,VALID,25.7285,VALID,73,VALID,0.00273437,
2008-05-31, 01:39:04,VALID,1003.67,VALID,0,VALID,88.1899,VALID,0.100563,VALID,25.6895,VALID,72,VALID,0,
2008-05-31, 01:40:04,VALID,1003.66,VALID,0,VALID,88.3195,VALID,0,VALID,25.6934,VALID,68,VALID,0,
2008-05-31, 01:41:04,VALID,1003.63,VALID,0,VALID,88.4874,VALID,0,VALID,25.633,VALID,67,VALID,0,
2008-05-31, 01:42:04,VALID,1003.67,VALID,0,VALID,88.5484,VALID,0,VALID,25.6136,VALID,69,VALID,0,
2008-05-31, 01:43:04,VALID,1003.66,VALID,0,VALID,88.7315,VALID,0,VALID,25.635,VALID,36,VALID,0.783594,
2008-05-31, 01:44:04,VALID,1003.67,VALID,0,VALID,88.5408,VALID,0,VALID,25.635,VALID,36,VALID,0.311719,
2008-05-31, 01:45:04,VALID,1003.68,VALID,0,VALID,88.7468,VALID,0,VALID,25.5551,VALID,35,VALID,0.410937,
2008-05-31, 01:46:04,VALID,1003.71,VALID,0,VALID,88.7544,VALID,0,VALID,25.5181,VALID,22,VALID,0.572266,
2008-05-31, 01:47:04,VALID,1003.7,VALID,0,VALID,88.907,VALID,0,VALID,25.4577,VALID,4,VALID,0.651172,
2008-05-31, 01:48:04,VALID,1003.71,VALID,0,VALID,89.2579,VALID,0,VALID,25.3993,VALID,3,VALID,0.692578,
2008-05-31, 01:49:04,VALID,1003.73,VALID,0,VALID,89.4639,VALID,0,VALID,25.4188,VALID,25,VALID,0.575391,
2008-05-31, 01:50:04,VALID,1003.74,VALID,0,VALID,89.6165,VALID,0,VALID,25.4012,VALID,5,VALID,0.967578,
2008-05-31, 01:51:04,VALID,1003.73,VALID,0,VALID,89.7767,VALID,0,VALID,25.4188,VALID,72,VALID,0.622656,
2008-05-31, 01:52:04,VALID,1003.72,VALID,0,VALID,89.7843,VALID,0,VALID,25.4597,VALID,78,VALID,0.722656,
2008-05-31, 01:53:04,VALID,1003.72,VALID,0,VALID,89.6088,VALID,0,VALID,25.4772,VALID,71,VALID,0.41875,
2008-05-31, 01:54:04,VALID,1003.71,VALID,0,VALID,89.6622,VALID,0,VALID,25.4772,VALID,90,VALID,0.769922,
2008-05-31, 01:55:04,VALID,1003.71,VALID,0,VALID,89.6317,VALID,0,VALID,25.4772,VALID,32,VALID,0.744531,
2008-05-31, 01:56:04,VALID,1003.69,VALID,0,VALID,89.5249,VALID,0,VALID,25.4772,VALID,24,VALID,0.314844,
2008-05-31, 01:57:04,VALID,1003.69,VALID,0,VALID,89.5707,VALID,0,VALID,25.4967,VALID,39,VALID,0.344531,
2008-05-31, 01:58:04,VALID,1003.7,VALID,0,VALID,89.6317,VALID,0,VALID,25.5162,VALID,90,VALID,1.11602,
2008-05-31, 01:59:04,VALID,1003.68,VALID,0,VALID,89.3342,VALID,0,VALID,25.5941,VALID,83,VALID,0.439063,
2008-05-31, 02:00:04,VALID,1003.67,VALID,0,VALID,89.0519,VALID,0,VALID,25.6136,VALID,50,VALID,0.447266,
2008-05-31, 02:01:04,VALID,1003.69,VALID,0,VALID,88.907,VALID,0,VALID,25.672,VALID,80,VALID,0.729688,
2008-05-31, 02:02:04,VALID,1003.7,VALID,0,VALID,88.6323,VALID,0,VALID,25.7304,VALID,63,VALID,0.952344,
2008-05-31, 02:03:04,VALID,1003.7,VALID,0,VALID,88.4187,VALID,0,VALID,25.7889,VALID,92,VALID,1.32266,
2008-05-31, 02:04:04,VALID,1003.73,VALID,0,VALID,88.1288,VALID,0,VALID,25.7889,VALID,76,VALID,0.616406,
2008-05-31, 02:05:04,VALID,1003.7,VALID,0,VALID,88.022,VALID,0,VALID,25.8278,VALID,96,VALID,1.46289,
2008-05-31, 02:06:04,VALID,1003.69,VALID,0,VALID,87.8237,VALID,0,VALID,25.8473,VALID,51,VALID,0.964844,
2008-05-31, 02:07:04,VALID,1003.64,VALID,0,VALID,87.7474,VALID,0,VALID,25.8687,VALID,105,VALID,0.657422,
2008-05-31, 02:08:04,VALID,1003.64,VALID,0,VALID,87.7398,VALID,0,VALID,25.8473,VALID,78,VALID,1.83828,
2008-05-31, 02:09:04,VALID,1003.66,VALID,0,VALID,87.6253,VALID,0,VALID,25.8668,VALID,39,VALID,0.966797,
2008-05-31, 02:10:04,VALID,1003.66,VALID,0,VALID,87.5414,VALID,0,VALID,25.8687,VALID,58,VALID,0.673437,
2008-05-31, 02:11:04,VALID,1003.65,VALID,0,VALID,87.5185,VALID,0,VALID,25.8473,VALID,33,VALID,1.08047,
2008-05-31, 02:12:04,VALID,1003.66,VALID,0,VALID,87.4651,VALID,0,VALID,25.8668,VALID,61,VALID,1.00195,
2008-05-31, 02:13:04,VALID,1003.61,VALID,0,VALID,87.1142,VALID,0,VALID,25.9252,VALID,75,VALID,2.05859,
2008-05-31, 02:14:04,VALID,1003.64,VALID,0,VALID,86.7709,VALID,0,VALID,25.9836,VALID,44,VALID,2.36328,
2008-05-31, 02:15:04,VALID,1003.6,VALID,0,VALID,86.4505,VALID,0,VALID,26.081,VALID,30,VALID,1.86836,
2008-05-31, 02:16:04,VALID,1003.56,VALID,0,VALID,86.2369,VALID,0,VALID,26.1025,VALID,19,VALID,1.49219,
2008-05-31, 02:17:04,VALID,1003.52,VALID,0,VALID,86.2979,VALID,0,VALID,26.0616,VALID,90,VALID,0.208203,
2008-05-31, 02:18:04,VALID,1003.52,VALID,0,VALID,86.4123,VALID,0,VALID,26.0441,VALID,68,VALID,0.921484,
2008-05-31, 02:19:04,VALID,1003.51,VALID,0,VALID,86.5725,VALID,0,VALID,25.9836,VALID,22,VALID,0.71875,
2008-05-31, 02:20:04,VALID,1003.49,VALID,0,VALID,86.7327,VALID,0,VALID,25.9447,VALID,22,VALID,1.36758,
2008-05-31, 02:21:04,VALID,1003.45,VALID,0,VALID,86.7404,VALID,0,VALID,25.9661,VALID,32,VALID,0.834766,
2008-05-31, 02:22:04,VALID,1003.41,VALID,0,VALID,86.7404,VALID,0,VALID,25.9252,VALID,34,VALID,0.766406,
2008-05-31, 02:23:04,VALID,1003.42,VALID,0,VALID,86.7861,VALID,0,VALID,25.9252,VALID,31,VALID,0.635547,
2008-05-31, 02:24:04,VALID,1003.42,VALID,0,VALID,86.8624,VALID,0,VALID,25.8863,VALID,17,VALID,1.09648,
2008-05-31, 02:25:04,VALID,1003.43,VALID,0,VALID,86.9082,VALID,0,VALID,25.8843,VALID,48,VALID,0.739062,
2008-05-31, 02:26:04,VALID,1003.38,VALID,0,VALID,86.9769,VALID,0.100563,VALID,25.8453,VALID,28,VALID,0.677344,
2008-05-31, 02:27:04,VALID,1003.37,VALID,0,VALID,87.1447,VALID,0.100563,VALID,25.8064,VALID,15,VALID,0.947266,
2008-05-31, 02:28:04,VALID,1003.33,VALID,0,VALID,87.2286,VALID,0.100563,VALID,25.8064,VALID,36,VALID,1.18086,
2008-05-31, 02:29:04,VALID,1003.33,VALID,0,VALID,87.2362,VALID,0,VALID,25.8473,VALID,98,VALID,0.41875,
2008-05-31, 02:30:04,VALID,1003.32,VALID,0,VALID,87.1447,VALID,0,VALID,25.8473,VALID,69,VALID,0.286328,
2008-05-31, 02:31:04,VALID,1003.31,VALID,0,VALID,87.1905,VALID,0.100563,VALID,25.8083,VALID,71,VALID,0.258594,
2008-05-31, 02:32:04,VALID,1003.29,VALID,0,VALID,87.2515,VALID,0,VALID,25.7674,VALID,70,VALID,0.260547,
2008-05-31, 02:33:04,VALID,1003.29,VALID,0,VALID,87.3659,VALID,0,VALID,25.748,VALID,67,VALID,0.645312,
2008-05-31, 02:34:04,VALID,1003.3,VALID,0,VALID,87.3278,VALID,0,VALID,25.7889,VALID,61,VALID,1.09492,
2008-05-31, 02:35:04,VALID,1003.31,VALID,0,VALID,87.221,VALID,0.100563,VALID,25.8064,VALID,80,VALID,1.28945,
2008-05-31, 02:36:04,VALID,1003.28,VALID,0,VALID,86.9845,VALID,0.100563,VALID,25.8473,VALID,30,VALID,0.672266,
2008-05-31, 02:37:04,VALID,1003.25,VALID,0,VALID,86.9692,VALID,0,VALID,25.7889,VALID,32,VALID,0.283984,
2008-05-31, 02:38:04,VALID,1003.2,VALID,0,VALID,87.3583,VALID,0.100563,VALID,25.748,VALID,91,VALID,0.880469,
2008-05-31, 02:39:04,VALID,1003.18,VALID,0,VALID,87.3125,VALID,0.100563,VALID,25.748,VALID,86,VALID,0.416797,
2008-05-31, 02:40:04,VALID,1003.18,VALID,0,VALID,87.2668,VALID,0,VALID,25.7109,VALID,86,VALID,0.527344,
2008-05-31, 02:41:04,VALID,1003.17,VALID,0,VALID,87.4804,VALID,0,VALID,25.6525,VALID,53,VALID,0.760938,
2008-05-31, 02:42:04,VALID,1003.18,VALID,0,VALID,87.7932,VALID,0,VALID,25.6545,VALID,100,VALID,0.968359,
2008-05-31, 02:43:04,VALID,1003.22,VALID,0,VALID,87.7321,VALID,0,VALID,25.6739,VALID,77,VALID,0.502344,
2008-05-31, 02:44:04,VALID,1003.2,VALID,0,VALID,87.7245,VALID,0,VALID,25.6739,VALID,71,VALID,0.220313,
2008-05-31, 02:45:04,VALID,1003.19,VALID,0,VALID,87.7703,VALID,0,VALID,25.672,VALID,77,VALID,1.62109,
2008-05-31, 02:46:04,VALID,1003.16,VALID,0,VALID,87.5567,VALID,0,VALID,25.7109,VALID,76,VALID,0.753125,
2008-05-31, 02:47:04,VALID,1003.17,VALID,0,VALID,87.4041,VALID,0,VALID,25.7713,VALID,39,VALID,0.958594,
2008-05-31, 02:48:04,VALID,1003.14,VALID,0,VALID,87.3278,VALID,0,VALID,25.7499,VALID,10,VALID,0.7,
2008-05-31, 02:49:04,VALID,1003.1,VALID,0,VALID,87.2286,VALID,0,VALID,25.7908,VALID,63,VALID,1.3793,
2008-05-31, 02:50:04,VALID,1003.07,VALID,0,VALID,87.1218,VALID,0,VALID,25.8083,VALID,42,VALID,0.485547,
2008-05-31, 02:51:04,VALID,1003.07,VALID,0,VALID,87.0532,VALID,0,VALID,25.8298,VALID,76,VALID,1.58516,
2008-05-31, 02:52:04,VALID,1003.07,VALID,0,VALID,86.9082,VALID,0,VALID,25.8278,VALID,22,VALID,1.02734,
2008-05-31, 02:53:04,VALID,1003.11,VALID,0,VALID,86.9006,VALID,0,VALID,25.8493,VALID,25,VALID,1.59727,
2008-05-31, 02:54:04,VALID,1003.1,VALID,0,VALID,86.9082,VALID,0,VALID,25.8083,VALID,60,VALID,0.909766,
2008-05-31, 02:55:04,VALID,1003.07,VALID,0,VALID,86.9387,VALID,0,VALID,25.8103,VALID,41,VALID,1.10898,
2008-05-31, 02:56:04,VALID,1003.05,VALID,0,VALID,86.9845,VALID,0,VALID,25.8298,VALID,63,VALID,0.867578,
2008-05-31, 02:57:04,VALID,1003.07,VALID,0,VALID,86.9464,VALID,0,VALID,25.8298,VALID,65,VALID,1.16719,
2008-05-31, 02:58:04,VALID,1003.06,VALID,0,VALID,86.8243,VALID,0,VALID,25.8278,VALID,99,VALID,1.01094,
2008-05-31, 02:59:04,VALID,1003.07,VALID,0,VALID,86.7404,VALID,0,VALID,25.8278,VALID,80,VALID,1.57305,
2008-05-31, 03:00:04,VALID,1003.05,VALID,0,VALID,86.7938,VALID,0,VALID,25.8298,VALID,84,VALID,1.12891,
2008-05-31, 03:01:04,VALID,1003.04,VALID,0,VALID,86.9235,VALID,0,VALID,25.8103,VALID,58,VALID,1.00898,
2008-05-31, 03:02:04,VALID,1003.03,VALID,0,VALID,87.0226,VALID,0,VALID,25.7694,VALID,48,VALID,1.67539,
2008-05-31, 03:03:04,VALID,1003.05,VALID,0,VALID,86.8243,VALID,0,VALID,25.8278,VALID,75,VALID,1.08828,
2008-05-31, 03:04:04,VALID,1003.05,VALID,0,VALID,86.6793,VALID,0,VALID,25.8473,VALID,53,VALID,1.31836,
2008-05-31, 03:05:04,VALID,1003.06,VALID,0,VALID,86.4276,VALID,0,VALID,25.9447,VALID,74,VALID,1.00937,
2008-05-31, 03:06:04,VALID,1003.05,VALID,0,VALID,86.2598,VALID,0,VALID,25.9642,VALID,87,VALID,1.43828,
2008-05-31, 03:07:04,VALID,1003.04,VALID,0,VALID,86.1529,VALID,0,VALID,25.9642,VALID,90,VALID,1.36484,
2008-05-31, 03:08:04,VALID,1003.05,VALID,0,VALID,86.1301,VALID,0,VALID,25.9856,VALID,77,VALID,1.31445,
2008-05-31, 03:09:04,VALID,1003.05,VALID,0,VALID,86.1835,VALID,0,VALID,25.9661,VALID,86,VALID,0.877344,
2008-05-31, 03:10:04,VALID,1003.01,VALID,0,VALID,86.2979,VALID,0,VALID,25.9642,VALID,86,VALID,1.41055,
2008-05-31, 03:11:04,VALID,1003.01,VALID,0,VALID,86.2903,VALID,0,VALID,25.9447,VALID,103,VALID,0.523828,
2008-05-31, 03:12:04,VALID,1002.99,VALID,0,VALID,86.3894,VALID,0,VALID,25.9038,VALID,102,VALID,1.3582,
2008-05-31, 03:13:04,VALID,1003,VALID,0,VALID,86.3284,VALID,0,VALID,25.9836,VALID,71,VALID,1.55,
2008-05-31, 03:14:04,VALID,1002.97,VALID,0,VALID,86.1453,VALID,0,VALID,25.9817,VALID,78,VALID,2.32148,
2008-05-31, 03:15:04,VALID,1003.01,VALID,0,VALID,86.0385,VALID,0.100563,VALID,26.0012,VALID,73,VALID,1.63945,
2008-05-31, 03:16:04,VALID,1002.95,VALID,0,VALID,85.9927,VALID,0.100563,VALID,26.0206,VALID,73,VALID,1.16992,
2008-05-31, 03:17:04,VALID,1002.93,VALID,0,VALID,85.9546,VALID,0,VALID,26.0401,VALID,71,VALID,0.988672,
2008-05-31, 03:18:04,VALID,1002.94,VALID,0,VALID,85.9012,VALID,0,VALID,26.0596,VALID,46,VALID,1.08711,
2008-05-31, 03:19:04,VALID,1002.93,VALID,0,VALID,85.8554,VALID,0.100563,VALID,26.0616,VALID,54,VALID,1.21133,
2008-05-31, 03:20:04,VALID,1003.02,VALID,0,VALID,85.7715,VALID,0,VALID,26.081,VALID,41,VALID,1.52539,
2008-05-31, 03:21:04,VALID,1003.01,VALID,0,VALID,85.6647,VALID,0,VALID,26.0985,VALID,33,VALID,1.59961,
2008-05-31, 03:22:04,VALID,1003.07,VALID,0,VALID,85.5655,VALID,0.100563,VALID,26.118,VALID,57,VALID,1.54414,
2008-05-31, 03:23:04,VALID,1003.1,VALID,0,VALID,85.4587,VALID,0.100563,VALID,26.1375,VALID,80,VALID,2.87734,
2008-05-31, 03:24:04,VALID,1003.07,VALID,0,VALID,85.1917,VALID,0.100563,VALID,26.1979,VALID,73,VALID,2.09023,
2008-05-31, 03:25:04,VALID,1003.09,VALID,0,VALID,85.1383,VALID,0,VALID,26.1979,VALID,52,VALID,0.866406,
2008-05-31, 03:26:04,VALID,1003.1,VALID,0,VALID,85.1688,VALID,0,VALID,26.1999,VALID,75,VALID,0.633203,
2008-05-31, 03:27:04,VALID,1003.1,VALID,0,VALID,85.1307,VALID,0,VALID,26.1784,VALID,83,VALID,1.22852,
2008-05-31, 03:28:04,VALID,1003.11,VALID,0,VALID,85.062,VALID,0,VALID,26.1999,VALID,114,VALID,2.17656,
2008-05-31, 03:29:04,VALID,1003.11,VALID,0,VALID,85.0544,VALID,0,VALID,26.1979,VALID,50,VALID,1.05,
2008-05-31, 03:30:04,VALID,1003.12,VALID,0,VALID,85.0849,VALID,0,VALID,26.2194,VALID,90,VALID,1.57227,
2008-05-31, 03:31:04,VALID,1003.07,VALID,0,VALID,85.0468,VALID,0,VALID,26.2389,VALID,78,VALID,1.50508,
2008-05-31, 03:32:04,VALID,1003.09,VALID,0,VALID,84.9018,VALID,0,VALID,26.2369,VALID,70,VALID,1.15937,
2008-05-31, 03:33:04,VALID,1003.04,VALID,0,VALID,84.9094,VALID,0,VALID,26.3148,VALID,88,VALID,2.83086,
2008-05-31, 03:34:04,VALID,1003.07,VALID,0,VALID,84.6958,VALID,0,VALID,26.3753,VALID,62,VALID,1.83789,
2008-05-31, 03:35:04,VALID,1003.06,VALID,0,VALID,84.4822,VALID,0,VALID,26.3947,VALID,90,VALID,1.57148,
2008-05-31, 03:36:04,VALID,1003.08,VALID,0,VALID,84.4593,VALID,0,VALID,26.3927,VALID,109,VALID,1.35391,
2008-05-31, 03:37:04,VALID,1003.06,VALID,0,VALID,84.5356,VALID,0,VALID,26.3538,VALID,15,VALID,1.05586,
2008-05-31, 03:38:04,VALID,1003.05,VALID,0,VALID,84.5814,VALID,0,VALID,26.3538,VALID,30,VALID,1.30664,
2008-05-31, 03:39:04,VALID,1003.05,VALID,0,VALID,84.6729,VALID,0,VALID,26.2953,VALID,32,VALID,1.13477,
2008-05-31, 03:40:04,VALID,1003.04,VALID,0,VALID,84.7874,VALID,0,VALID,26.2973,VALID,79,VALID,1.81641,
2008-05-31, 03:41:04,VALID,1003.09,VALID,0,VALID,84.9247,VALID,0,VALID,26.2389,VALID,71,VALID,0.902344,
2008-05-31, 03:42:04,VALID,1003.09,VALID,0,VALID,85.0391,VALID,0,VALID,26.1979,VALID,67,VALID,1.2543,
2008-05-31, 03:43:04,VALID,1003.13,VALID,0,VALID,85.123,VALID,0,VALID,26.1784,VALID,123,VALID,0.719531,
2008-05-31, 03:44:04,VALID,1003.1,VALID,0,VALID,85.1993,VALID,0,VALID,26.159,VALID,72,VALID,1.10742,